Powrót do katalogu

SL-24 DEB

AktywnySSO
NORAD 39450·DEBRIS·🇷🇺 Russia

Wystrzelony Nov 21, 2013 z Dombarovsky

Loading…

Następne Przeloty (najbliższe 24 godziny)

TLE

ŚwieżeSource: Space-Track

Epoka: Sep 14, 2026, 11:18 UTC

1 39450U 13066AL  26257.47110855  .00011638  00000-0  38022-3 0  9997
2 39450  97.3961 263.5194 0004266 346.8427  13.2702 15.31890488701268

Śledź SL-24 DEB w czasie rzeczywistym z AllMySat

Download on the App Store